20050417,000025,205058,32.135568,-118.966548,15.271,33.132,0.521,0.788
20050417,000055,205088,32.134777,-118.967913,15.225,33.164,0.578,0.923
20050417,000125,205118,32.134040,-118.969288,15.206,33.170,0.540,0.834
20050417,000155,205148,32.133297,-118.970678,15.185,33.177,0.527,0.794
20050417,000225,205178,32.132542,-118.972063,15.162,33.185,0.559,0.891
20050417,000255,205208,32.131785,-118.973425,15.150,33.179,0.578,0.990
20050417,000325,205238,32.131005,-118.974785,15.127,33.184,0.559,1.079
20050417,000355,205268,32.130260,-118.976165,15.101,33.186,0.546,0.808
20050417,000425,205298,32.129530,-118.977565,15.086,33.185,0.521,0.761
20050417,000455,205328,32.128768,-118.978951,15.073,33.180,0.533,0.794
20050417,000525,205358,32.128020,-118.980355,15.048,33.185,0.559,0.839
20050417,000555,205388,32.127267,-118.981756,15.039,33.177,0.527,0.815
20050417,000626,205419,32.126470,-118.983190,15.040,33.159,0.552,0.960
20050417,000656,205449,32.125722,-118.984586,15.001,33.178,0.571,0.925
20050417,000726,205479,32.124972,-118.985986,14.980,33.179,0.571,1.072
20050417,000755,205508,32.124243,-118.987336,14.970,33.172,0.571,0.937
20050417,000825,205538,32.123498,-118.988741,14.976,33.151,0.578,0.866
20050417,000856,205569,32.122733,-118.990193,14.985,33.133,0.565,0.834
20050417,000926,205599,32.121985,-118.991600,14.994,33.112,0.565,0.849
20050417,000956,205629,32.121248,-118.993023,14.999,33.101,0.502,0.780
20050417,001025,205658,32.120560,-118.994403,15.010,33.086,0.483,0.739
20050417,001055,205688,32.119817,-118.995851,15.021,33.076,0.552,0.949
20050417,001125,205718,32.119102,-118.997281,15.019,33.082,0.584,0.959
20050417,001156,205749,32.118360,-118.998745,15.015,33.081,0.591,0.909
20050417,001226,205779,32.117637,-119.000175,14.990,33.104,0.591,0.899
20050417,001255,205808,32.116947,-119.001557,14.987,33.104,0.540,0.867
20050417,001326,205839,32.116213,-119.003027,14.971,33.116,0.502,0.791
20050417,001356,205869,32.115498,-119.004468,14.959,33.119,0.502,0.809
20050417,001426,205899,32.114778,-119.005898,14.966,33.109,0.502,0.752
20050417,001456,205929,32.114048,-119.007325,14.973,33.097,0.514,0.738
20050417,001526,205959,32.113338,-119.008753,14.972,33.093,0.527,0.767
20050417,001556,205989,32.112630,-119.010188,14.944,33.113,0.559,0.825
20050417,001626,206019,32.111897,-119.011620,14.921,33.130,0.578,0.879
20050417,001657,206050,32.111185,-119.013043,14.916,33.136,0.578,0.858
20050417,001726,206079,32.110468,-119.014478,14.892,33.143,0.616,0.903
20050417,001756,206109,32.109738,-119.015903,14.894,33.133,0.622,0.936
20050417,001826,206139,32.109023,-119.017333,14.903,33.116,0.578,0.908
20050417,001857,206170,32.108290,-119.018778,14.925,33.091,0.591,0.854
20050417,001927,206200,32.107560,-119.020233,14.943,33.072,0.571,0.815
20050417,001956,206229,32.106863,-119.021642,14.957,33.061,0.546,0.802
20050417,002026,206259,32.106125,-119.023123,14.994,33.029,0.559,0.811
20050417,002056,206289,32.105415,-119.024573,15.002,33.028,0.565,0.821
20050417,002126,206319,32.104682,-119.026007,15.028,33.017,0.559,0.808
20050417,002156,206349,32.103958,-119.027443,15.038,33.020,0.559,0.804
20050417,002226,206379,32.103228,-119.028882,15.043,33.028,0.591,0.901
20050417,002257,206410,32.102497,-119.030295,15.041,33.041,0.629,0.926
20050417,002326,206439,32.101773,-119.031707,15.023,33.066,0.578,0.807
20050417,002356,206469,32.101038,-119.033120,14.987,33.103,0.578,0.813
20050417,002426,206499,32.100318,-119.034512,14.963,33.125,0.584,0.832
20050417,002456,206529,32.099588,-119.035913,14.940,33.141,0.571,0.817
20050417,002526,206559,32.098853,-119.037300,14.958,33.120,0.578,0.838
20050417,002556,206589,32.098150,-119.038713,14.972,33.099,0.584,0.929
20050417,002626,206619,32.097398,-119.040113,15.015,33.058,0.597,0.938
20050417,002656,206649,32.096698,-119.041542,15.058,33.028,0.610,0.862
20050417,002726,206679,32.095983,-119.042970,15.090,33.001,0.584,0.811
20050417,002757,206710,32.095240,-119.044355,15.099,33.007,0.591,0.841
20050417,002826,206739,32.094535,-119.045778,15.109,33.011,0.597,0.858
20050417,002856,206769,32.093803,-119.047177,15.070,33.056,0.565,0.793
20050417,002927,206800,32.093082,-119.048602,15.041,33.094,0.571,0.815
20050417,002956,206829,32.092362,-119.050037,14.993,33.142,0.571,0.844
20050417,003026,206859,32.091665,-119.051475,14.980,33.146,0.591,0.938
20050417,003056,206889,32.090948,-119.052915,14.988,33.132,0.578,0.962
20050417,003126,206919,32.090222,-119.054342,15.004,33.110,0.578,0.951
20050417,003156,206949,32.089503,-119.055762,15.004,33.103,0.597,0.940
20050417,003226,206979,32.088793,-119.057190,15.000,33.103,0.571,0.799
20050417,003256,207009,32.088048,-119.058602,14.989,33.108,0.540,0.736
20050417,003326,207039,32.087345,-119.059983,14.974,33.118,0.508,0.684
20050417,003356,207069,32.086652,-119.061397,14.962,33.125,0.477,0.641
20050417,003426,207099,32.085943,-119.062798,14.965,33.117,0.495,0.677
20050417,003457,207130,32.085245,-119.064210,14.972,33.106,0.533,0.744
20050417,003526,207159,32.084547,-119.065598,14.980,33.092,0.546,0.762
20050417,003556,207189,32.083825,-119.066990,14.989,33.081,0.571,0.803
20050417,003626,207219,32.083112,-119.068403,15.002,33.071,0.565,0.781
20050417,003656,207249,32.082393,-119.069805,15.005,33.073,0.559,0.764
20050417,003726,207279,32.081665,-119.071210,15.008,33.072,0.495,0.688
20050417,003756,207309,32.080953,-119.072627,15.009,33.076,0.495,0.699
20050417,003826,207339,32.080240,-119.074028,15.008,33.078,0.521,0.738
20050417,003856,207369,32.079523,-119.075435,15.015,33.074,0.521,0.756
20050417,003926,207399,32.078830,-119.076857,15.017,33.074,0.495,0.681
20050417,003956,207429,32.078100,-119.078253,15.018,33.076,0.514,0.694
20050417,004026,207459,32.077420,-119.079680,15.025,33.076,0.527,0.713
20050417,004056,207489,32.076707,-119.081090,15.027,33.073,0.495,0.675
20050417,004126,207519,32.075975,-119.082523,15.015,33.087,0.470,0.640
20050417,004156,207549,32.075283,-119.083943,15.005,33.097,0.470,0.657
20050417,004226,207579,32.074563,-119.085337,15.006,33.102,0.470,0.658
20050417,004256,207609,32.073860,-119.086727,15.002,33.101,0.470,0.685
20050417,004326,207639,32.073145,-119.088123,14.988,33.110,0.464,0.680
20050417,004356,207669,32.072428,-119.089522,14.985,33.112,0.464,0.645
20050417,004426,207699,32.071718,-119.090917,14.971,33.122,0.439,0.585
20050417,004456,207729,32.071002,-119.092320,14.976,33.116,0.426,0.555
20050417,004526,207759,32.070303,-119.093722,14.968,33.116,0.420,0.544
20050417,004556,207789,32.069613,-119.095138,14.955,33.122,0.376,0.488
20050417,004626,207819,32.068968,-119.096593,14.929,33.140,0.401,0.528
20050417,004656,207849,32.068315,-119.098042,14.921,33.142,0.414,0.549
20050417,004726,207879,32.067665,-119.099492,14.919,33.138,0.401,0.521
20050417,004756,207909,32.067017,-119.100928,14.901,33.145,0.451,0.594
20050417,004826,207939,32.066377,-119.102382,14.879,33.156,0.464,0.612
20050417,004856,207969,32.065730,-119.103818,14.880,33.148,0.458,0.600
20050417,004926,207999,32.065088,-119.105247,14.851,33.164,0.433,0.568
20050417,004956,208029,32.064438,-119.106698,14.833,33.164,0.464,0.642
20050417,005026,208059,32.063793,-119.108147,14.827,33.157,0.439,0.592
20050417,005056,208089,32.063158,-119.109573,14.825,33.147,0.445,0.588
20050417,005126,208119,32.062520,-119.111022,14.828,33.134,0.445,0.578
20050417,005157,208150,32.061875,-119.112465,14.830,33.123,0.433,0.552
20050417,005226,208179,32.061232,-119.113922,14.817,33.126,0.445,0.564
20050417,005256,208209,32.060570,-119.115385,14.807,33.129,0.420,0.530
20050417,005326,208239,32.059918,-119.116835,14.808,33.120,0.414,0.522
20050417,005356,208269,32.059393,-119.118332,14.813,33.115,0.458,0.588
20050417,005426,208299,32.058823,-119.119803,14.816,33.106,0.470,0.607
20050417,005456,208329,32.058267,-119.121300,14.820,33.101,0.451,0.570
20050417,005526,208359,32.057718,-119.122803,14.826,33.092,0.470,0.592
20050417,005557,208390,32.057178,-119.124293,14.834,33.088,0.470,0.590
20050417,005626,208419,32.056630,-119.125785,14.828,33.091,0.477,0.600
20050417,005656,208449,32.056068,-119.127267,14.812,33.103,0.477,0.606
20050417,005726,208479,32.055498,-119.128732,14.815,33.110,0.483,0.620
20050417,005757,208510,32.055017,-119.130208,14.818,33.099,0.477,0.610
20050417,005826,208539,32.054487,-119.131705,14.823,33.093,0.477,0.603
20050417,005856,208569,32.053998,-119.133193,14.828,33.089,0.502,0.638
20050417,005926,208599,32.053482,-119.134665,14.830,33.087,0.495,0.631
20050417,005956,208629,32.052970,-119.136142,14.841,33.077,0.477,0.601
20050417,010026,208659,32.052485,-119.137577,14.849,33.072,0.489,0.616
20050417,010057,208690,32.051968,-119.139080,14.856,33.070,0.495,0.622
20050417,010126,208719,32.051455,-119.140572,14.849,33.078,0.495,0.622
20050417,010156,208749,32.050922,-119.142065,14.841,33.089,0.470,0.591
20050417,010226,208779,32.050407,-119.143572,14.842,33.090,0.495,0.631
20050417,010256,208809,32.049898,-119.145095,14.839,33.094,0.489,0.621
20050417,010326,208839,32.049373,-119.146617,14.830,33.100,0.470,0.591
20050417,010356,208869,32.048860,-119.148137,14.832,33.099,0.477,0.600
20050417,010426,208899,32.048325,-119.149670,14.831,33.100,0.495,0.625
20050417,010456,208929,32.047800,-119.151185,14.814,33.111,0.508,0.643
20050417,010526,208959,32.047283,-119.152715,14.807,33.115,0.508,0.649
20050417,010556,208989,32.046768,-119.154223,14.793,33.123,0.502,0.640
20050417,010626,209019,32.046252,-119.155742,14.790,33.122,0.502,0.640
20050417,010656,209049,32.045728,-119.157245,14.780,33.126,0.495,0.633
20050417,010726,209079,32.045202,-119.158768,14.784,33.119,0.502,0.641
20050417,010756,209109,32.044698,-119.160283,14.786,33.110,0.495,0.628
20050417,010826,209139,32.044165,-119.161780,14.791,33.103,0.477,0.597
20050417,010856,209169,32.043642,-119.163293,14.793,33.099,0.483,0.605
20050417,010926,209199,32.043125,-119.164817,14.797,33.093,0.464,0.579
20050417,010956,209229,32.042592,-119.166338,14.797,33.092,0.470,0.591
20050417,011026,209259,32.042077,-119.167873,14.799,33.090,0.489,0.616
20050417,011057,209290,32.041555,-119.169357,14.804,33.085,0.495,0.623
20050417,011126,209319,32.041005,-119.170843,14.808,33.085,0.489,0.615
20050417,011156,209349,32.040520,-119.172357,14.810,33.087,0.489,0.615
20050417,011226,209379,32.040008,-119.173842,14.812,33.084,0.489,0.616
20050417,011256,209409,32.039488,-119.175323,14.810,33.087,0.508,0.639
20050417,011326,209439,32.038957,-119.176810,14.813,33.088,0.508,0.636
20050417,011356,209469,32.038488,-119.178308,14.819,33.079,0.495,0.619
20050417,011426,209499,32.037945,-119.179808,14.832,33.073,0.483,0.601
20050417,011456,209529,32.037428,-119.181330,14.837,33.072,0.483,0.604
20050417,011526,209559,32.036915,-119.182840,14.839,33.073,0.495,0.620
20050417,011556,209589,32.036410,-119.184340,14.838,33.080,0.477,0.588
20050417,011626,209619,32.035875,-119.185847,14.839,33.079,0.477,0.587
20050417,011656,209649,32.035358,-119.187353,14.825,33.093,0.477,0.587
20050417,011726,209679,32.034828,-119.188832,14.821,33.097,0.495,0.614
20050417,011757,209710,32.034300,-119.190347,14.821,33.098,0.495,0.616
20050417,011826,209739,32.033783,-119.191870,14.809,33.109,0.477,0.593
20050417,011856,209769,32.033280,-119.193377,14.806,33.110,0.495,0.622
20050417,011926,209799,32.032738,-119.194850,14.799,33.111,0.489,0.613
20050417,011956,209829,32.032225,-119.196353,14.798,33.109,0.477,0.595
20050417,012026,209859,32.031702,-119.197862,14.797,33.109,0.495,0.616
20050417,012056,209889,32.031170,-119.199373,14.790,33.112,0.483,0.597
20050417,012126,209919,32.030607,-119.200885,14.775,33.121,0.508,0.633
20050417,012156,209949,32.030112,-119.202400,14.765,33.124,0.495,0.614
20050417,012226,209979,32.029537,-119.203885,14.760,33.129,0.483,0.595
20050417,012256,210009,32.028770,-119.205267,14.753,33.128,0.495,0.611
20050417,012326,210039,32.028015,-119.206670,14.746,33.126,0.521,0.647
20050417,012356,210069,32.027257,-119.208067,14.750,33.119,0.502,0.621
20050417,012426,210099,32.026490,-119.209462,14.752,33.112,0.521,0.648
20050417,012456,210129,32.025742,-119.210872,14.745,33.112,0.540,0.676
20050417,012526,210159,32.024967,-119.212260,14.742,33.112,0.565,0.712
20050417,012557,210190,32.024208,-119.213637,14.746,33.104,0.559,0.698
20050417,012627,210220,32.023432,-119.215058,14.750,33.099,0.552,0.687
20050417,012657,210250,32.022712,-119.216368,14.751,33.096,0.559,0.695
20050417,012727,210280,32.022145,-119.217338,14.756,33.092,0.552,0.687
20050417,012756,210309,32.021693,-119.218037,14.737,33.104,0.578,0.724
20050417,012826,210339,32.021255,-119.218807,14.738,33.106,0.565,0.707
20050417,012857,210370,32.020752,-119.219602,14.718,33.121,0.578,0.727
20050417,012927,210400,32.020253,-119.220363,14.718,33.119,0.578,0.728
20050417,012956,210429,32.019818,-119.221140,14.712,33.117,0.565,0.714
20050417,013027,210460,32.019352,-119.221912,14.712,33.116,0.597,0.767
20050417,013057,210490,32.018868,-119.222695,14.719,33.107,0.578,0.738
20050417,013126,210519,32.018435,-119.223482,14.723,33.098,0.571,0.721
20050417,013157,210550,32.017897,-119.224348,14.728,33.095,0.584,0.734
20050417,013226,210579,32.017413,-119.225197,14.736,33.088,0.584,0.732
20050417,013257,210610,32.016932,-119.226095,14.746,33.078,0.571,0.714
20050417,013326,210639,32.016462,-119.226947,14.754,33.072,0.591,0.741
20050417,013356,210669,32.015958,-119.227857,14.762,33.064,0.584,0.732
20050417,013426,210699,32.015413,-119.228790,14.763,33.068,0.584,0.733
20050417,013457,210730,32.014882,-119.229760,14.771,33.061,0.591,0.744
20050417,013527,210760,32.014433,-119.230678,14.766,33.067,0.597,0.754
20050417,013557,210791,32.013933,-119.231527,14.765,33.060,0.603,0.761
20050417,013627,210820,32.013625,-119.232060,14.770,33.062,0.674,0.864
20050417,013657,210850,32.013550,-119.232400,14.775,33.054,0.622,0.784
20050417,013727,210880,32.013518,-119.232632,14.781,33.051,0.610,0.763
20050417,013757,210910,32.013523,-119.232838,14.787,33.049,0.622,0.781
20050417,013828,210941,32.013605,-119.232980,14.794,33.043,0.661,0.837
20050417,013857,210970,32.013707,-119.233097,14.803,33.038,0.603,0.751
20050417,013927,211000,32.013780,-119.233218,14.818,33.034,0.654,0.825
20050417,013957,211030,32.013842,-119.233308,14.826,33.039,0.635,0.796
20050417,014027,211060,32.013877,-119.233357,14.836,33.041,0.654,0.824
20050417,014057,211090,32.013887,-119.233413,14.848,33.038,0.635,0.795
20050417,014127,211120,32.013902,-119.233518,14.856,33.035,0.667,0.842
20050417,014158,211151,32.013905,-119.233612,14.860,33.034,0.642,0.804
20050417,014227,211180,32.013937,-119.233690,14.862,33.033,0.648,0.813
20050417,014257,211210,32.013982,-119.233750,14.866,33.033,0.667,0.842
20050417,014327,211240,32.014033,-119.233797,14.868,33.033,0.629,0.785
20050417,014357,211270,32.014115,-119.233837,14.865,33.038,0.654,0.824
20050417,014427,211300,32.014183,-119.233893,14.864,33.044,0.654,0.825
20050417,014458,211331,32.014198,-119.233955,14.855,33.055,0.674,0.855
20050417,014527,211360,32.014215,-119.234018,14.852,33.060,0.642,0.807
20050417,014557,211390,32.014223,-119.234047,14.845,33.067,0.661,0.835
20050417,014627,211420,32.014217,-119.234053,14.848,33.064,0.654,0.823
20050417,014658,211451,32.014197,-119.234053,14.841,33.069,0.693,0.880
20050417,014727,211480,32.014197,-119.234023,14.845,33.065,0.744,0.958
20050417,014757,211510,32.014170,-119.234013,14.853,33.063,0.680,0.858
20050417,014827,211540,32.014163,-119.233968,14.853,33.065,0.680,0.857
20050417,014857,211570,32.014102,-119.233970,14.852,33.068,0.680,0.857
20050417,014927,211600,32.014060,-119.233942,14.847,33.075,0.674,0.847
20050417,014957,211630,32.013993,-119.233918,14.847,33.078,0.667,0.837
20050417,015027,211660,32.013900,-119.233898,14.843,33.081,0.718,0.914
20050417,015057,211690,32.013833,-119.233912,14.824,33.103,0.686,0.865
20050417,015127,211720,32.013740,-119.234028,14.811,33.104,0.674,0.844
20050417,015157,211750,32.013668,-119.234148,14.801,33.113,0.680,0.854
20050417,015227,211780,32.013640,-119.234253,14.790,33.114,0.674,0.844
20050417,015257,211810,32.013600,-119.234345,14.778,33.120,0.667,0.834
20050417,015327,211840,32.013583,-119.234358,14.786,33.106,0.705,0.891
20050417,015358,211871,32.013567,-119.234347,14.778,33.109,0.667,0.834
20050417,015427,211900,32.013587,-119.234352,14.770,33.112,0.674,0.844
20050417,015457,211930,32.013607,-119.234355,14.772,33.105,0.654,0.815
20050417,015527,211960,32.013622,-119.234383,14.762,33.109,0.667,0.834
20050417,015557,211990,32.013605,-119.234423,14.756,33.113,0.699,0.881
20050417,015628,212021,32.013552,-119.234458,14.752,33.111,0.693,0.871
20050417,015657,212050,32.013473,-119.234475,14.751,33.107,0.680,0.851
20050417,015727,212080,32.013395,-119.234513,14.751,33.104,0.686,0.861
20050417,015757,212110,32.013307,-119.234567,14.753,33.099,0.667,0.832
20050417,015827,212141,32.013243,-119.234613,14.750,33.100,0.674,0.841
20050417,015857,212170,32.013152,-119.234667,14.747,33.102,0.680,0.850
20050417,015927,212200,32.013080,-119.234710,14.750,33.096,0.699,0.878
20050417,015957,212230,32.013023,-119.234743,14.745,33.100,0.667,0.829
20050417,020027,212260,32.012985,-119.234798,14.738,33.104,0.686,0.858
20050417,020057,212290,32.012942,-119.234850,14.739,33.105,0.674,0.839
20050417,020127,212320,32.012932,-119.234843,14.738,33.102,0.674,0.839
20050417,020157,212350,32.012932,-119.234828,14.740,33.104,0.667,0.830
20050417,020227,212380,32.012977,-119.234800,14.742,33.099,0.667,0.830
20050417,020257,212410,32.013037,-119.234770,14.742,33.099,0.699,0.879
20050417,020327,212440,32.013087,-119.234770,14.740,33.100,0.686,0.859
20050417,020357,212470,32.013133,-119.234742,14.740,33.101,0.661,0.820
20050417,020427,212500,32.013145,-119.234723,14.739,33.102,0.686,0.858
20050417,020457,212530,32.013145,-119.234702,14.734,33.108,0.699,0.877
20050417,020527,212560,32.013135,-119.234673,14.734,33.106,0.686,0.856
20050417,020557,212590,32.013110,-119.234633,14.731,33.109,0.680,0.846
20050417,020627,212620,32.013070,-119.234615,14.730,33.109,0.674,0.836
20050417,020657,212650,32.013030,-119.234613,14.724,33.114,0.680,0.846
20050417,020727,212680,32.012977,-119.234613,14.731,33.109,0.674,0.836
20050417,020758,212711,32.012905,-119.234652,14.723,33.115,0.686,0.855
20050417,020827,212740,32.012838,-119.234687,14.724,33.114,0.674,0.836
20050417,020857,212770,32.012758,-119.234725,14.725,33.113,0.686,0.855
20050417,020927,212800,32.012680,-119.234752,14.723,33.113,0.642,0.789
20050417,020957,212830,32.012597,-119.234748,14.725,33.109,0.680,0.845
20050417,021027,212860,32.012523,-119.234745,14.729,33.105,0.674,0.835
20050417,021057,212890,32.012448,-119.234732,14.725,33.110,0.686,0.854
20050417,021127,212920,32.012353,-119.234723,14.723,33.113,0.686,0.853
20050417,021157,212950,32.012295,-119.234708,14.721,33.112,0.699,0.872
20050417,021227,212980,32.012242,-119.234713,14.721,33.114,0.667,0.824
20050417,021257,213010,32.012185,-119.234775,14.720,33.114,0.680,0.843
20050417,021327,213040,32.012203,-119.234860,14.718,33.115,0.680,0.843
20050417,021357,213070,32.012242,-119.234917,14.719,33.116,0.680,0.843
20050417,021427,213100,32.012303,-119.234913,14.716,33.116,0.680,0.843
20050417,021458,213131,32.012375,-119.234935,14.717,33.116,0.712,0.891
20050417,021527,213160,32.012440,-119.234962,14.720,33.113,0.705,0.881
20050417,021557,213190,32.012475,-119.235015,14.715,33.114,0.699,0.871
20050417,021627,213220,32.012475,-119.235095,14.717,33.112,0.674,0.833
20050417,021658,213251,32.012447,-119.235207,14.720,33.110,0.705,0.880
20050417,021728,213281,32.012445,-119.235260,14.719,33.109,0.680,0.841
20050417,021757,213310,32.012413,-119.235330,14.717,33.111,0.667,0.822
20050417,021827,213340,32.012393,-119.235372,14.723,33.108,0.667,0.822
20050417,021857,213370,32.012387,-119.235388,14.726,33.104,0.693,0.860
20050417,021927,213400,32.012388,-119.235368,14.725,33.105,0.648,0.794
20050417,021957,213430,32.012423,-119.235325,14.725,33.105,0.686,0.850
20050417,022028,213461,32.012455,-119.235343,14.725,33.105,0.667,0.822
20050417,022057,213491,32.012498,-119.235362,14.729,33.104,0.680,0.841
20050417,022127,213520,32.012510,-119.235425,14.718,33.112,0.680,0.841
20050417,022157,213550,32.012483,-119.235528,14.721,33.112,0.674,0.831
20050417,022227,213580,32.012502,-119.235657,14.721,33.110,0.699,0.869
20050417,022257,213610,32.012508,-119.235780,14.720,33.113,0.686,0.850
20050417,022327,213640,32.012492,-119.235892,14.718,33.116,0.680,0.840
20050417,022357,213670,32.012485,-119.235932,14.718,33.116,0.661,0.812
20050417,022427,213700,32.012483,-119.235958,14.718,33.116,0.680,0.840
20050417,022457,213730,32.012483,-119.235995,14.718,33.116,0.680,0.840
20050417,022528,213761,32.012477,-119.236050,14.717,33.118,0.661,0.811
20050417,022557,213790,32.012470,-119.236063,14.716,33.116,0.674,0.830
20050417,022627,213820,32.012442,-119.236085,14.713,33.118,0.667,0.820
20050417,022657,213850,32.012385,-119.236097,14.715,33.118,0.686,0.849
20050417,022727,213880,32.012308,-119.236105,14.712,33.120,0.667,0.820
20050417,022757,213910,32.012225,-119.236133,14.712,33.119,0.667,0.820
20050417,022827,213940,32.012163,-119.236175,14.712,33.118,0.629,0.764
20050417,022857,213970,32.012082,-119.236243,14.712,33.117,0.622,0.755
20050417,022927,214000,32.012040,-119.236302,14.712,33.117,0.654,0.801
20050417,022958,214031,32.011995,-119.236332,14.712,33.117,0.610,0.737
20050417,023027,214060,32.011962,-119.236350,14.712,33.116,0.622,0.755
20050417,023057,214090,32.011905,-119.236362,14.712,33.116,0.629,0.764
20050417,023127,214120,32.011890,-119.236385,14.716,33.115,0.635,0.773
20050417,023157,214150,32.011918,-119.236402,14.713,33.115,0.635,0.773
20050417,023227,214180,32.011915,-119.236427,14.712,33.117,0.603,0.727
20050417,023258,214211,32.011915,-119.236427,14.709,33.120,0.642,0.783
20050417,023327,214240,32.011892,-119.236432,14.706,33.122,0.635,0.773
20050417,023357,214270,32.011870,-119.236445,14.706,33.121,0.674,0.829
20050417,023428,214301,32.011857,-119.236453,14.706,33.122,0.642,0.782
20050417,023458,214331,32.011825,-119.236470,14.705,33.121,0.686,0.848
20050417,023527,214360,32.011803,-119.236490,14.704,33.121,0.654,0.801
20050417,023558,214391,32.011777,-119.236505,14.707,33.118,0.648,0.791
20050417,023628,214421,32.011752,-119.236528,14.704,33.120,0.661,0.810
20050417,023658,214451,32.011718,-119.236552,14.702,33.122,0.642,0.782
20050417,023728,214481,32.011670,-119.236608,14.702,33.122,0.629,0.764
20050417,023757,214510,32.011637,-119.236658,14.703,33.122,0.667,0.819
20050417,023828,214541,32.011598,-119.236702,14.702,33.119,0.648,0.791
20050417,023857,214570,32.011580,-119.236742,14.701,33.121,0.629,0.764
20050417,023928,214601,32.011598,-119.236755,14.699,33.122,0.667,0.819
20050417,023958,214631,32.011640,-119.236773,14.702,33.119,0.635,0.773
20050417,024028,214661,32.011648,-119.236790,14.699,33.121,0.635,0.773
20050417,024058,214691,32.011642,-119.236803,14.700,33.116,0.661,0.810
20050417,024127,214720,32.011637,-119.236795,14.696,33.122,0.629,0.764
20050417,024158,214751,32.011615,-119.236797,14.695,33.123,0.635,0.773
20050417,024228,214781,32.011562,-119.236800,14.692,33.122,0.667,0.819
20050417,024258,214811,32.011522,-119.236783,14.694,33.122,0.648,0.791
20050417,024328,214841,32.011467,-119.236782,14.692,33.121,0.635,0.773
20050417,024358,214871,32.011437,-119.236770,14.692,33.121,0.610,0.736
20050417,024428,214901,32.011438,-119.236742,14.691,33.121,0.610,0.736
20050417,024459,214932,32.011455,-119.236703,14.690,33.122,0.629,0.764
20050417,024528,214961,32.011538,-119.236597,14.687,33.123,0.642,0.782
20050417,024559,214992,32.011615,-119.236532,14.683,33.124,0.635,0.773
20050417,024628,215021,32.011722,-119.236520,14.681,33.127,0.635,0.773